Погода в Алябьевском

Россия / Ханты-Мансийский автономный округ - Югра     61°12′55″N   62°46′27″E
темп.,
°C
ветер,
м/с
пор.,
м/с
влажн.,
%
обл.,
%
осадки,
мм/ч
давл.,
гПа
погр.,
м
13 июня, вс
вс1323:00+17юз394619 0.0 1020166
02:00+15юз27555 0.0 1020133
05:00+14ююз38605 0.0 1020193
08:00+21юз36395 0.0 1020409
11:00+26юз45275 0.0 10192271
14:00+28юз452739 0.0 10182627
17:00+28юз462940 0.0 10182701
20:00+26ююз483543 0.0 1017651
14 июня, пн
пн1423:00+20ю311545 0.0 1017237
02:00+17ююз3126742 0.1 1017275
05:00+17ююз41067100 0.1 1017335
08:00+20юз4116198 0.1 1016708
11:00+21юз5106044 0.2 1016765
14:00+27юз5841100 0.0 10142220
17:00+27юз463888 0.0 10121721
20:00+19вюв227989 4.6 101243
15 июня, вт
вт1523:00+17ююв227969 5.4 101127
02:00+16юз228856 0.2 101018
05:00+16ююз3118782 0.2 1009292
08:00+21зюз587046 0.1 1009683
11:00+24з4657100 0.5 10091445
14:00+19з378298 1.2 1011459
17:00+23з375890 1.3 10101015
20:00+23сз375039 0.2 1010585
16 июня, ср
ср1623:00+17сз256510 0.2 1012100
02:00+15св23885 0.0 101355
05:00+15всв12755 0.0 101381
08:00+20вюв115220 0.0 1013468
11:00+25юз124074 0.0 10131606
14:00+27зсз24306 0.0 10112209
17:00+26з344089 0.0 1010915
20:00+25з004758 0.0 100918
17 июня, чт
чт1723:00+20ю236092 0.0 100844
02:00+18ю2870100 0.0 1007153
05:00+18ююз298659 1.1 1006262
08:00+22зюз496455 0.0 1005663
11:00+27зюз584146 0.0 10031722
14:00+26зюз8105099 0.3 10022018
17:00+12сз71287100 4.6 1007859
20:00+11ссз71380100 0.1 10091146